Time,TemperatureF,DewpointF,PressureIn,WindDirection,WindDirectionDegrees,WindSpeedMPH,WindSpeedGustMPH,Humidity,HourlyPrecipIn,Conditions,Clouds,dailyrainin,SoftwareType,DateUTC
2013-03-01 00:00:00,33.0,27.0,-100.00,NNW,345,0.0,0.0,78,-99.99,,,-99.99,,2013-03-01 06:00:00,
2013-03-01 00:10:00,34.0,28.0,-100.00,North,0,0.0,0.0,78,-99.99,,,-99.99,,2013-03-01 06:10:00,
2013-03-01 00:30:00,33.0,28.0,-100.00,North,0,0.0,0.0,79,-99.99,,,-99.99,,2013-03-01 06:30:00,
2013-03-01 00:40:00,33.0,27.0,-100.00,North,0,0.0,0.0,80,-99.99,,,-99.99,,2013-03-01 06:40:00,
2013-03-01 00:53:00,33.0,27.0,-100.00,NNW,345,0.0,0.0,78,-99.99,,,-99.99,,2013-03-01 06:53:00,
2013-03-01 01:00:00,33.0,27.0,-100.00,North,350,0.0,0.0,81,-99.99,,,-99.99,,2013-03-01 07:00:00,
2013-03-01 01:10:00,32.0,27.0,-100.00,North,0,0.0,0.0,81,-99.99,,,-99.99,,2013-03-01 07:10:00,
2013-03-01 01:30:00,31.0,26.0,-100.00,North,0,0.0,0.0,81,-99.99,,,-99.99,,2013-03-01 07:30:00,
2013-03-01 01:40:00,31.0,26.0,-100.00,North,5,0.0,0.0,81,-99.99,,,-99.99,,2013-03-01 07:40:00,
2013-03-01 02:00:00,31.0,27.0,-100.00,NNW,335,0.0,0.0,82,-99.99,,,-99.99,,2013-03-01 08:00:00,
2013-03-01 02:10:00,31.0,26.0,-100.00,North,0,0.0,0.0,82,-99.99,,,-99.99,,2013-03-01 08:10:00,
2013-03-01 02:30:00,31.0,26.0,-100.00,NNW,330,0.0,0.0,84,-99.99,,,-99.99,,2013-03-01 08:30:00,
2013-03-01 02:40:00,30.0,26.0,-100.00,North,0,0.0,0.0,84,-99.99,,,-99.99,,2013-03-01 08:40:00,
2013-03-01 03:00:00,30.0,26.0,-100.00,North,0,0.0,0.0,85,-99.99,,,-99.99,,2013-03-01 09:00:00,
2013-03-01 03:10:00,29.0,26.0,-100.00,North,0,0.0,0.0,86,-99.99,,,-99.99,,2013-03-01 09:10:00,
2013-03-01 03:30:00,29.0,25.0,-100.00,NNW,335,0.0,0.0,86,-99.99,,,-99.99,,2013-03-01 09:30:00,
2013-03-01 03:40:00,29.0,25.0,-100.00,NW,315,0.0,0.0,86,-99.99,,,-99.99,,2013-03-01 09:40:00,
2013-03-01 04:00:00,27.0,24.0,-100.00,West,260,0.0,0.0,88,-99.99,,,-99.99,,2013-03-01 10:00:00,
2013-03-01 04:10:00,27.0,24.0,-100.00,West,280,0.0,0.0,90,-99.99,,,-99.99,,2013-03-01 10:10:00,
2013-03-01 04:30:00,27.0,25.0,-100.00,NW,305,0.0,0.0,90,-99.99,,,-99.99,,2013-03-01 10:30:00,
2013-03-01 04:40:00,27.0,25.0,-100.00,NW,310,0.0,0.0,90,-99.99,,,-99.99,,2013-03-01 10:40:00,
2013-03-01 05:00:00,27.0,25.0,-100.00,WNW,295,0.0,0.0,91,-99.99,,,-99.99,,2013-03-01 11:00:00,
2013-03-01 05:10:00,27.0,25.0,-100.00,NNW,330,0.0,0.0,92,-99.99,,,-99.99,,2013-03-01 11:10:00,
2013-03-01 05:30:00,27.0,25.0,-100.00,NW,325,0.0,0.0,92,-99.99,,,-99.99,,2013-03-01 11:30:00,
2013-03-01 05:40:00,27.0,25.0,-100.00,NW,310,0.0,0.0,93,-99.99,,,-99.99,,2013-03-01 11:40:00,
2013-03-01 06:30:00,27.0,25.0,-100.00,NW,320,0.0,0.0,92,-99.99,,,-99.99,,2013-03-01 12:30:00,
2013-03-01 06:40:00,27.0,26.0,-100.00,NW,325,0.0,0.0,93,-99.99,,,-99.99,,2013-03-01 12:40:00,
2013-03-01 07:10:00,28.0,27.0,-100.00,NNW,335,0.0,0.0,93,-99.99,,,-99.99,,2013-03-01 13:10:00,
2013-03-01 07:30:00,29.0,27.0,-100.00,North,350,0.0,0.0,92,-99.99,,,-99.99,,2013-03-01 13:30:00,
2013-03-01 07:40:00,29.0,27.0,-100.00,NNW,345,0.0,0.0,91,-99.99,,,-99.99,,2013-03-01 13:40:00,
2013-03-01 08:00:00,30.0,27.0,-100.00,North,355,0.0,0.0,89,-99.99,,,-99.99,,2013-03-01 14:00:00,
2013-03-01 08:40:00,32.0,28.0,-100.00,NNW,345,0.0,0.0,84,-99.99,,,-99.99,,2013-03-01 14:40:00,
2013-03-01 09:10:00,33.0,28.0,-100.00,North,350,0.0,0.0,82,-99.99,,,-99.99,,2013-03-01 15:10:00,
2013-03-01 09:30:00,33.0,28.0,-100.00,NNW,340,0.0,0.0,80,-99.99,,,-99.99,,2013-03-01 15:30:00,
2013-03-01 09:40:00,33.0,28.0,-100.00,North,0,0.0,0.0,80,-99.99,,,-99.99,,2013-03-01 15:40:00,
2013-03-01 10:10:00,34.0,27.0,-100.00,North,0,0.0,0.0,76,-99.99,,,-99.99,,2013-03-01 16:10:00,
2013-03-01 10:40:00,34.0,26.0,-100.00,NNW,345,0.0,0.0,74,-99.99,,,-99.99,,2013-03-01 16:40:00,
2013-03-01 10:52:00,34.0,27.0,-100.00,North,0,0.0,0.0,76,-99.99,,,-99.99,,2013-03-01 16:52:00,
2013-03-01 11:00:00,34.0,26.0,-100.00,North,0,0.0,2.0,72,-99.99,,,-99.99,,2013-03-01 17:00:00,
2013-03-01 11:01:00,34.0,27.0,-100.00,North,0,0.0,0.0,76,-99.99,,,-99.99,,2013-03-01 17:01:00,
2013-03-01 11:10:00,34.0,25.0,-100.00,North,0,0.0,0.0,71,-99.99,,,-99.99,,2013-03-01 17:10:00,
2013-03-01 11:30:00,34.0,25.0,-100.00,NNW,345,0.0,0.0,71,-99.99,,,-99.99,,2013-03-01 17:30:00,
2013-03-01 11:40:00,35.0,26.0,-100.00,North,0,0.0,0.0,70,-99.99,,,-99.99,,2013-03-01 17:40:00,
2013-03-01 12:00:00,35.0,25.0,-100.00,North,0,0.0,4.0,68,-99.99,,,-99.99,,2013-03-01 18:00:00,
2013-03-01 12:10:00,36.0,26.0,-100.00,NNW,345,0.0,0.0,67,-99.99,,,-99.99,,2013-03-01 18:10:00,
2013-03-01 13:00:00,35.0,25.0,-100.00,NNW,345,0.0,0.0,65,-99.99,,,-99.99,,2013-03-01 19:00:00,
2013-03-01 13:10:00,36.0,25.0,-100.00,North,0,0.0,0.0,66,-99.99,,,-99.99,,2013-03-01 19:10:00,
2013-03-01 13:30:00,36.0,25.0,-100.00,North,0,0.0,0.0,66,-99.99,,,-99.99,,2013-03-01 19:30:00,
2013-03-01 13:40:00,35.0,25.0,-100.00,North,0,0.0,0.0,66,-99.99,,,-99.99,,2013-03-01 19:40:00,
2013-03-01 14:00:00,35.0,26.0,-100.00,NNW,345,0.0,0.0,67,-99.99,,,-99.99,,2013-03-01 20:00:00,
2013-03-01 14:10:00,35.0,25.0,-100.00,North,0,0.0,0.0,66,-99.99,,,-99.99,,2013-03-01 20:10:00,
2013-03-01 14:52:00,35.0,26.0,-100.00,NNW,345,0.0,0.0,67,-99.99,,,-99.99,,2013-03-01 20:52:00,
2013-03-01 15:00:00,35.0,25.0,-100.00,North,350,0.0,0.0,66,-99.99,,,-99.99,,2013-03-01 21:00:00,
2013-03-01 15:10:00,35.0,25.0,-100.00,NNW,345,0.0,0.0,66,-99.99,,,-99.99,,2013-03-01 21:10:00,
2013-03-01 16:40:00,34.0,23.0,-100.00,North,0,0.0,0.0,65,-99.99,,,-99.99,,2013-03-01 22:40:00,
2013-03-01 17:00:00,34.0,23.0,-100.00,North,0,0.0,0.0,65,-99.99,,,-99.99,,2013-03-01 23:00:00,
2013-03-01 17:32:00,34.0,23.0,-100.00,North,0,0.0,0.0,65,-99.99,,,-99.99,,2013-03-01 23:32:00,
2013-03-01 17:40:00,33.0,23.0,-100.00,North,0,0.0,0.0,65,-99.99,,,-99.99,,2013-03-01 23:40:00,
2013-03-01 18:00:00,32.0,21.0,-100.00,North,0,0.0,0.0,64,-99.99,,,-99.99,,2013-03-02 00:00:00,
2013-03-01 18:10:00,32.0,21.0,-100.00,NNW,345,0.0,0.0,64,-99.99,,,-99.99,,2013-03-02 00:10:00,
2013-03-01 18:30:00,31.0,21.0,-100.00,North,350,0.0,0.0,65,-99.99,,,-99.99,,2013-03-02 00:30:00,
2013-03-01 18:32:00,33.0,23.0,-100.00,North,0,0.0,0.0,65,-99.99,,,-99.99,,2013-03-02 00:32:00,
2013-03-01 18:40:00,31.0,21.0,-100.00,North,350,0.0,0.0,65,-99.99,,,-99.99,,2013-03-02 00:40:00,
2013-03-01 19:30:00,31.0,22.0,-100.00,NNE,15,0.0,0.0,70,-99.99,,,-99.99,,2013-03-02 01:30:00,
2013-03-01 19:41:00,31.0,22.0,-100.00,North,10,0.0,0.0,71,-99.99,,,-99.99,,2013-03-02 01:41:00,
2013-03-01 20:00:00,30.0,22.0,-100.00,NNE,20,0.0,0.0,72,-99.99,,,-99.99,,2013-03-02 02:00:00,
2013-03-01 20:10:00,29.0,22.0,-100.00,NNE,15,0.0,0.0,72,-99.99,,,-99.99,,2013-03-02 02:10:00,
2013-03-01 20:30:00,29.0,21.0,-100.00,NE,35,0.0,0.0,72,-99.99,,,-99.99,,2013-03-02 02:30:00,
2013-03-01 20:40:00,29.0,21.0,-100.00,NE,40,0.0,0.0,72,-99.99,,,-99.99,,2013-03-02 02:40:00,
2013-03-01 21:00:00,28.0,21.0,-100.00,NNE,25,0.0,0.0,74,-99.99,,,-99.99,,2013-03-02 03:00:00,
2013-03-01 21:10:00,28.0,20.0,-100.00,North,10,0.0,0.0,72,-99.99,,,-99.99,,2013-03-02 03:10:00,
2013-03-01 21:40:00,27.0,19.0,-100.00,North,0,0.0,0.0,72,-99.99,,,-99.99,,2013-03-02 03:40:00,
2013-03-01 22:00:00,26.0,19.0,-100.00,North,0,0.0,0.0,74,-99.99,,,-99.99,,2013-03-02 04:00:00,
2013-03-01 22:10:00,25.0,18.0,-100.00,North,0,0.0,0.0,74,-99.99,,,-99.99,,2013-03-02 04:10:00,
2013-03-01 22:30:00,23.0,17.0,-100.00,NW,315,0.0,0.0,77,-99.99,,,-99.99,,2013-03-02 04:30:00,
2013-03-01 22:32:00,27.0,19.0,-100.00,North,0,0.0,0.0,72,-99.99,,,-99.99,,2013-03-02 04:32:00,
2013-03-01 22:40:00,23.0,17.0,-100.00,WNW,285,0.0,0.0,79,-99.99,,,-99.99,,2013-03-02 04:40:00,
2013-03-01 22:52:00,26.0,19.0,-100.00,North,0,0.0,0.0,74,-99.99,,,-99.99,,2013-03-02 04:52:00,
2013-03-01 23:00:00,23.0,18.0,-100.00,WNW,300,0.0,0.0,81,-99.99,,,-99.99,,2013-03-02 05:00:00,
2013-03-01 23:10:00,22.0,18.0,-100.00,NW,315,0.0,0.0,82,-99.99,,,-99.99,,2013-03-02 05:10:00,
2013-03-01 23:30:00,22.0,18.0,-100.00,NNW,330,0.0,0.0,84,-99.99,,,-99.99,,2013-03-02 05:30:00,
2013-03-01 23:40:00,23.0,19.0,-100.00,NW,320,0.0,0.0,84,-99.99,,,-99.99,,2013-03-02 05:40:00,